sat.trackr.live / text

‹ back to catalog

STARLINK-30442

NORAD 57868 · 2023-144E

PAYLOAD ACTIVE UNKNOWN

§ Identity

Operator
Country
US
Launch date
2023-09-16
Launch site
AFETR
Launch vehicle
Mass (kg)
RCS (m²)

Purposes: comms

External: N2YO · Heavens-Above · Gunter

§ Orbital elements

Epoch: 2026-05-24T21:44:06.832896Z

Period
94.27 min
Inclination
43.0021°
Eccentricity
0.0001395
Mean motion
15.27575476 rev/d
Perigee alt
482.1 km
Apogee alt
484.0 km
Semi-major
6,861.2 km
B*
1.0655e-5
RAAN
214.7365°
Arg perigee
273.2882°
Mean anomaly
86.7810°
Rev number
14,925

§ Raw data

STARLINK-304421 57868U 23144E   26144.90563464  .00000031  00000+0  10655-4 0  99962 57868  43.0021 214.7365 0001395 273.2882  86.7810 15.27575476149254

JSON: /api/v1/satellites/57868 · /tle

For live sub-satellite position, see the globe view (requires WebGL).

§ Visibility from observer

Set your observer location to see the next 7 days of passes ≥ 10°. The values pass through the URL so the page stays shareable.

No JS? Fill the form by hand. The geolocation button needs JavaScript.